EW7939 Weather Reports


time (UTC)temp
F
wind
direction
speed
knots
gust
knots
rain 1hr
in
rain 24hr
in
rain mn
in
humidity
%
barometer
mb
20260506144534 54 344 0.9 3.5 0.00 0.18 0.01 65 1016.1
20260506143034 53 123 0.9 4.3 0.00 0.18 0.01 68 1016.2
20260506141527 51 248 1.7 3.5 0.00 0.18 0.01 70 1016.1
20260506140023 50 222 1.7 4.3 0.00 0.18 0.01 74 1015.8
20260506134520 49 311 0.9 2.6 0.00 0.18 0.01 79 1015.8
20260506133018 47 336 0.0 4.3 0.00 0.18 0.01 81 1015.7
20260506131517 47 270 0.0 2.6 0.00 0.18 0.01 83 1015.4
20260506130016 46 250 0.0 1.7 0.00 0.18 0.01 85 1015.2
20260506124512 45 250 0.0 1.7 0.00 0.18 0.01 86 1014.9
20260506123011 45 250 0.0 1.7 0.00 0.18 0.01 85 1014.9
20260506121510 45 250 0.0 0.0 0.00 0.18 0.01 85 1015.1
20260506120010 45 250 0.0 0.0 0.00 0.18 0.01 85 1014.9
20260506114510 45 250 0.0 1.7 0.00 0.18 0.01 85 1015.1
20260506113008 45 250 0.0 0.9 0.00 0.18 0.01 85 1014.9
20260506111503 45 250 0.0 1.7 0.00 0.18 0.01 85 1014.3
20260506104557 45 250 0.0 0.0 0.00 0.19 0.01 85 1013.6
20260506103057 45 250 0.0 0.9 0.00 0.19 0.01 85 1013.3
20260506101557 45 250 0.0 1.7 0.00 0.19 0.01 85 1013.4
20260506100056 45 250 0.9 2.6 0.00 0.19 0.01 85 1013.4
20260506094555 45 250 0.9 2.6 0.00 0.23 0.01 86 1013.5
20260506093055 45 247 0.9 4.3 0.00 0.23 0.01 87 1013.5
20260506091553 45 231 0.9 2.6 0.00 0.23 0.01 87 1013.0
20260506090052 45 230 0.0 1.7 0.00 0.23 0.01 87 1012.5
20260506084550 45 230 0.0 1.7 0.00 0.23 0.01 87 1012.1
20260506083049 45 230 0.0 1.7 0.00 0.23 0.01 86 1012.2
20260506081551 46 230 0.0 0.9 0.00 0.23 0.01 86 1012.3
20260506073050 46 230 0.0 1.7 0.00 0.23 0.01 86 1012.6
20260506071551 46 229 0.9 3.5 0.00 0.23 0.01 85 1012.5
20260506070105 46 105 0.0 2.6 0.01 0.23 0.01 86 1012.8
20260506061538 47 126 0.9 3.5 0.01 0.23 0.01 89 1013.6
20260506044525 48 268 1.7 3.5 0.00 0.33 0.22 91 1011.8
20260506043021 48 268 1.7 5.2 0.00 0.33 0.22 90 1011.8
20260506041518 48 269 1.7 3.5 0.00 0.33 0.22 90 1011.5
20260506040018 47 269 1.7 3.5 0.00 0.33 0.22 89 1011.6
20260506034515 48 269 1.7 2.6 0.00 0.33 0.22 88 1011.4
20260506033012 48 269 1.7 2.6 0.00 0.33 0.22 88 1011.3
20260506031611 48 269 0.9 2.6 0.00 0.33 0.22 87 1011.1
20260506030011 49 269 0.9 3.5 0.00 0.33 0.22 87 1010.9
20260506024509 49 269 0.0 2.6 0.00 0.33 0.22 87 1010.8
20260506023107 49 269 1.7 2.6 0.00 0.33 0.22 87 1010.7
20260506021507 50 269 1.7 5.2 0.00 0.33 0.22 87 1010.6
20260506020007 50 269 1.7 3.5 0.00 0.33 0.22 86 1010.5
20260506014510 50 269 1.7 6.1 0.00 0.33 0.22 86 1010.5
20260506013005 50 279 0.9 4.3 0.00 0.33 0.22 85 1010.4
20260506011504 50 281 0.9 1.7 0.00 0.33 0.22 84 1010.0
20260506010004 50 281 0.0 0.0 0.00 0.33 0.22 84 1009.7
20260506004502 50 281 0.0 1.7 0.00 0.33 0.22 84 1009.4
20260506003002 51 281 0.0 2.6 0.00 0.33 0.22 84 1009.5
20260506001604 51 281 0.9 2.6 0.00 0.33 0.22 83 1009.5
20260506000100 51 281 0.0 2.6 0.00 0.33 0.22 83 1009.8
20260505234618 51 282 0.9 2.6 0.00 0.33 0.22 82 1009.8
20260505233059 51 282 0.0 2.6 0.00 0.33 0.22 82 1009.7
20260505231559 51 282 0.0 2.6 0.00 0.33 0.22 81 1009.5
20260505230058 51 282 1.7 4.3 0.00 0.33 0.22 81 1009.6
20260505224557 51 294 1.7 3.5 0.00 0.33 0.22 81 1009.4
20260505223104 51 294 0.9 3.5 0.00 0.33 0.22 81 1009.3
20260505221608 51 294 0.0 3.5 0.00 0.33 0.22 81 1009.4
20260505220138 51 294 0.9 2.6 0.01 0.33 0.22 80 1009.4
20260505214655 52 292 0.9 2.6 0.01 0.33 0.22 80 1009.8
20260505213054 52 292 0.9 3.5 0.01 0.33 0.22 80 1009.7
20260505211611 52 293 0.0 2.6 0.01 0.33 0.22 80 1009.3
20260505210053 51 306 0.9 2.6 0.00 0.32 0.21 80 1009.7
20260505204552 51 306 2.6 4.3 0.00 0.32 0.21 79 1009.8
20260505203054 51 349 0.0 1.7 0.00 0.32 0.21 80 1009.6
20260505201605 50 349 0.9 2.6 0.00 0.32 0.21 81 1009.7
20260505194601 50 53 0.0 2.6 0.00 0.32 0.21 80 1009.8
20260505193050 50 50 0.0 3.5 0.00 0.32 0.21 82 1009.8
20260505191553 50 44 0.9 3.5 0.00 0.32 0.21 82 1010.2
20260505190051 50 122 1.7 4.3 0.00 0.32 0.21 83 1009.8
20260505184548 49 146 1.7 4.3 0.00 0.32 0.21 84 1009.8
20260505183051 49 94 0.9 2.6 0.01 0.32 0.21 85 1010.2
20260505181548 49 113 0.9 3.5 0.02 0.32 0.21 85 1009.8
20260505180046 48 119 0.9 3.5 0.02 0.32 0.21 84 1010.2
20260505174547 49 128 0.9 3.5 0.03 0.32 0.21 83 1010.0
20260505173048 49 46 0.0 3.5 0.02 0.31 0.20 83 1010.5
20260505171544 49 33 0.0 2.6 0.02 0.30 0.19 83 1010.9
20260505170042 49 35 0.9 2.6 0.02 0.30 0.19 83 1011.1
20260505164540 49 136 0.9 1.7 0.03 0.28 0.18 83 1010.8
20260505163040 49 360 0.0 2.6 0.07 0.28 0.18 82 1010.8
20260505161540 49 360 0.0 2.6 0.07 0.28 0.17 82 1010.7
20260505153040 49 360 0.0 3.5 0.04 0.22 0.11 80 1010.0
20260505151535 49 306 0.0 3.5 0.03 0.21 0.10 79 1010.3